| time (UTC) | temp F | wind direction | speed knots | gust knots | rain 1hr in | rain 24hr in | rain mn in | humidity % | barometer mb |
| 20260506044537 | 65 | 165 | 3.5 | 9.6 | 0.00 | 0.00 | 0.00 | 72 | 1009.4 |
| 20260506043027 | 66 | 198 | 4.3 | 12.2 | 0.00 | 0.00 | 0.00 | 71 | 1009.3 |
| 20260506041528 | 67 | 113 | 5.2 | 11.3 | 0.00 | 0.00 | 0.00 | 71 | 1008.6 |
| 20260506040029 | 68 | 124 | 4.3 | 9.6 | 0.00 | 0.00 | 0.00 | 71 | 1008.8 |
| 20260506034528 | 69 | 136 | 2.6 | 12.2 | 0.00 | 0.00 | 0.00 | 71 | 1008.7 |
| 20260506033034 | 70 | 164 | 4.3 | 12.2 | 0.00 | 0.00 | 0.00 | 70 | 1008.4 |
| 20260506031535 | 70 | 140 | 3.5 | 9.6 | 0.00 | 0.00 | 0.00 | 69 | 1008.0 |
| 20260506030050 | 71 | 159 | 4.3 | 11.3 | 0.00 | 0.00 | 0.00 | 69 | 1007.8 |
| 20260506024531 | 73 | 112 | 6.1 | 11.3 | 0.00 | 0.00 | 0.00 | 68 | 1007.4 |
| 20260506023033 | 74 | 136 | 5.2 | 9.6 | 0.00 | 0.00 | 0.00 | 68 | 1007.0 |
| 20260506021528 | 75 | 105 | 1.7 | 6.1 | 0.00 | 0.00 | 0.00 | 67 | 1006.5 |
| 20260506020028 | 75 | 107 | 1.7 | 6.1 | 0.00 | 0.00 | 0.00 | 66 | 1006.5 |
| 20260506014528 | 75 | 118 | 2.6 | 8.7 | 0.00 | 0.00 | 0.00 | 65 | 1006.2 |
| 20260506013031 | 76 | 100 | 1.7 | 9.6 | 0.00 | 0.00 | 0.00 | 64 | 1005.9 |
| 20260506011536 | 76 | 138 | 1.7 | 10.4 | 0.00 | 0.00 | 0.00 | 63 | 1005.9 |
| 20260506010026 | 78 | 149 | 5.2 | 11.3 | 0.00 | 0.00 | 0.00 | 62 | 1005.5 |
| 20260506004543 | 80 | 134 | 3.5 | 7.8 | 0.00 | 0.00 | 0.00 | 61 | 1005.4 |
| 20260506003034 | 81 | 142 | 4.3 | 10.4 | 0.00 | 0.00 | 0.00 | 60 | 1005.0 |
| 20260506001531 | 82 | 54 | 3.5 | 11.3 | 0.00 | 0.00 | 0.00 | 59 | 1005.1 |
| 20260506000026 | 83 | 80 | 0.9 | 4.3 | 0.00 | 0.00 | 0.00 | 63 | 1004.6 |
| 20260505234526 | 83 | 13 | 2.6 | 11.3 | 0.00 | 0.00 | 0.00 | 68 | 1004.5 |
| 20260505233029 | 84 | 329 | 4.3 | 13.0 | 0.00 | 0.00 | 0.00 | 68 | 1004.2 |
| 20260505231529 | 84 | 313 | 4.3 | 10.4 | 0.00 | 0.00 | 0.00 | 67 | 1004.1 |
| 20260505230048 | 84 | 339 | 3.5 | 9.6 | 0.00 | 0.00 | 0.00 | 67 | 1003.8 |
| 20260505224533 | 84 | 315 | 5.2 | 10.4 | 0.00 | 0.00 | 0.00 | 67 | 1004.0 |
| 20260505223027 | 86 | 285 | 4.3 | 10.4 | 0.00 | 0.00 | 0.00 | 64 | 1003.8 |
| 20260505221530 | 86 | 288 | 5.2 | 10.4 | 0.00 | 0.00 | 0.00 | 63 | 1003.7 |
| 20260505220032 | 88 | 292 | 2.6 | 7.8 | 0.00 | 0.00 | 0.00 | 61 | 1003.9 |
| 20260505214534 | 89 | 343 | 2.6 | 12.2 | 0.00 | 0.00 | 0.00 | 53 | 1003.9 |
| 20260505213033 | 88 | 307 | 3.5 | 10.4 | 0.00 | 0.00 | 0.00 | 58 | 1003.9 |
| 20260505211528 | 88 | 327 | 3.5 | 10.4 | 0.00 | 0.00 | 0.00 | 58 | 1004.2 |
| 20260505210029 | 88 | 355 | 5.2 | 11.3 | 0.00 | 0.00 | 0.00 | 57 | 1004.2 |
| 20260505204533 | 88 | 341 | 4.3 | 12.2 | 0.00 | 0.00 | 0.00 | 59 | 1004.5 |
| 20260505203034 | 86 | 335 | 5.2 | 11.3 | 0.00 | 0.00 | 0.00 | 61 | 1004.6 |
| 20260505201534 | 87 | 326 | 5.2 | 13.0 | 0.00 | 0.00 | 0.00 | 61 | 1004.7 |
| 20260505200032 | 86 | 337 | 6.1 | 13.9 | 0.00 | 0.00 | 0.00 | 62 | 1004.7 |
| 20260505194528 | 85 | 10 | 4.3 | 13.9 | 0.00 | 0.00 | 0.00 | 63 | 1004.8 |
| 20260505193028 | 84 | 355 | 6.1 | 13.9 | 0.00 | 0.00 | 0.00 | 63 | 1004.8 |
| 20260505191529 | 84 | 5 | 5.2 | 13.9 | 0.00 | 0.00 | 0.00 | 66 | 1005.0 |
| 20260505190037 | 83 | 315 | 6.1 | 13.0 | 0.00 | 0.00 | 0.00 | 64 | 1005.0 |
| 20260505184531 | 82 | 345 | 6.1 | 13.9 | 0.00 | 0.00 | 0.00 | 66 | 1005.1 |
| 20260505183030 | 82 | 360 | 7.8 | 14.8 | 0.00 | 0.00 | 0.00 | 66 | 1005.1 |
| 20260505181532 | 82 | 344 | 7.0 | 13.0 | 0.00 | 0.00 | 0.00 | 66 | 1005.2 |
| 20260505180037 | 82 | 286 | 7.0 | 17.4 | 0.00 | 0.00 | 0.00 | 66 | 1005.1 |
| 20260505174529 | 82 | 347 | 5.2 | 11.3 | 0.00 | 0.00 | 0.00 | 66 | 1005.2 |
| 20260505173026 | 81 | 18 | 6.1 | 15.6 | 0.00 | 0.00 | 0.00 | 67 | 1005.4 |
| 20260505171528 | 80 | 360 | 7.8 | 16.5 | 0.00 | 0.00 | 0.00 | 67 | 1005.5 |
| 20260505170027 | 80 | 269 | 7.0 | 13.0 | 0.00 | 0.00 | 0.00 | 68 | 1005.4 |
| 20260505164536 | 80 | 340 | 7.0 | 15.6 | 0.00 | 0.00 | 0.00 | 68 | 1005.3 |
| 20260505163034 | 80 | 348 | 7.0 | 17.4 | 0.00 | 0.00 | 0.00 | 68 | 1005.2 |
| 20260505161528 | 79 | 313 | 5.2 | 13.0 | 0.00 | 0.00 | 0.00 | 70 | 1005.3 |
| 20260505153034 | 76 | 9 | 7.0 | 14.8 | 0.00 | 0.00 | 0.00 | 74 | 1005.2 |
| 20260505151530 | 76 | 303 | 4.3 | 12.2 | 0.00 | 0.00 | 0.00 | 76 | 1005.3 |
| 20260505124529 | 71 | 294 | 3.5 | 13.0 | 0.00 | 0.00 | 0.00 | 80 | 1005.0 |
| 20260505123025 | 71 | 310 | 6.1 | 11.3 | 0.00 | 0.00 | 0.00 | 80 | 1004.4 |
| 20260505121532 | 71 | 321 | 4.3 | 11.3 | 0.00 | 0.00 | 0.00 | 80 | 1004.5 |
| 20260505120039 | 71 | 270 | 5.2 | 11.3 | 0.00 | 0.00 | 0.00 | 80 | 1004.3 |
| 20260505114527 | 71 | 5 | 5.2 | 9.6 | 0.00 | 0.00 | 0.00 | 80 | 1004.3 |
| 20260505113029 | 71 | 344 | 6.1 | 14.8 | 0.00 | 0.00 | 0.00 | 80 | 1004.0 |
| 20260505111532 | 71 | 328 | 5.2 | 12.2 | 0.00 | 0.00 | 0.00 | 80 | 1004.0 |
| 20260505091532 | 71 | 337 | 4.3 | 12.2 | 0.00 | 0.00 | 0.00 | 80 | 1004.7 |
| 20260505090027 | 71 | 331 | 5.2 | 14.8 | 0.00 | 0.00 | 0.00 | 80 | 1004.4 |
| 20260505084543 | 71 | 327 | 7.8 | 15.6 | 0.00 | 0.00 | 0.00 | 80 | 1004.4 |
| 20260505083043 | 71 | 355 | 4.3 | 14.8 | 0.00 | 0.00 | 0.00 | 80 | 1004.5 |
| 20260505081530 | 71 | 342 | 5.2 | 14.8 | 0.00 | 0.00 | 0.00 | 79 | 1004.5 |
| 20260505080039 | 71 | 302 | 7.0 | 15.6 | 0.00 | 0.00 | 0.00 | 79 | 1004.7 |
| 20260505074527 | 71 | 308 | 6.1 | 10.4 | 0.00 | 0.00 | 0.00 | 78 | 1005.0 |
| 20260505073036 | 71 | 355 | 5.2 | 13.9 | 0.00 | 0.00 | 0.00 | 78 | 1005.2 |
| 20260505071541 | 72 | 320 | 5.2 | 13.0 | 0.00 | 0.00 | 0.00 | 77 | 1005.4 |
| 20260505070039 | 72 | 321 | 6.1 | 14.8 | 0.00 | 0.00 | 0.00 | 77 | 1005.6 |
| 20260505064528 | 72 | 309 | 7.0 | 13.0 | 0.00 | 0.00 | 0.00 | 76 | 1005.9 |
| 20260505063037 | 72 | 299 | 3.5 | 10.4 | 0.00 | 0.00 | 0.00 | 76 | 1005.7 |
| 20260505061530 | 72 | 313 | 3.5 | 12.2 | 0.00 | 0.00 | 0.00 | 76 | 1006.0 |
| 20260505060050 | 72 | 348 | 6.1 | 10.4 | 0.00 | 0.00 | 0.00 | 75 | 1006.1 |
| 20260505054526 | 72 | 331 | 5.2 | 14.8 | 0.00 | 0.00 | 0.00 | 75 | 1006.0 |
| 20260505053027 | 72 | 344 | 4.3 | 11.3 | 0.00 | 0.00 | 0.00 | 74 | 1006.3 |
| 20260505051528 | 72 | 315 | 4.3 | 9.6 | 0.00 | 0.00 | 0.00 | 74 | 1006.3 |